Weather History for Comox, BC

Change the Weather History Date:

Thursday, February 21, 2013

  Actual Average Record
Temperature  
Mean Temperature 44 °F -  
Max Temperature 49 °F 48 °F 49 °F (2013)
Min Temperature 38 °F 35 °F 26 °F (2005)
Degree Days  
Heating Degree Days 22    
Moisture  
Dew Point 38 °F    
Average Humidity 81    
Maximum Humidity 100    
Minimum Humidity 62    
Precipitation  
Precipitation 0.00 in 0.15 in - ()
Sea Level Pressure  
Sea Level Pressure 29.91 in    
Wind  
Wind Speed 7 mph ()    
Max Wind Speed 20 mph    
Max Gust Speed 22 mph    
Visibility 19.5 miles    
Events      
Averages and records for this station are not official NWS values.
T = Trace of Precipitation, MM = Missing Value Source: Averaged Metar Reports

Daily Weather History Graph

Daily Weather History Graph

Search for Another Location

Airport:

Trip Planner

Search our weather history database for the weather conditions in past years. The results will help you decide how hot, cold, wet, or windy it might be!

Date:

Astronomy

Feb. 21, 2013 Rise Set
Actual Time 7:17 AM PST 5:49 PM PST
Civil Twilight 6:44 AM PST 6:22 PM PST
Nautical Twilight 6:07 AM PST 6:59 PM PST
Astronomical Twilight 5:30 AM PST 7:36 PM PST
Moon 1:55 PM PST (2/21) 4:41 AM PST (2/21)
Length of Visible Light 11h 37m
Length of Day
10h 31m
Waxing Gibbous, 84% of the Moon is Illuminated
Feb 21
Waxing Gibbous
Feb 25
Full
Mar 4
Last Quarter
Mar 11
New
Mar 19
First Quarter

Hourly Weather History & Observations

Time (PST) Temp. Windchill Dew Point Humidity Pressure Visibility Wind Dir Wind Speed Gust Speed Precip Events Conditions
12:00 AM 39.2 °F 35.9 °F 37.4 °F 93% 29.96 in 20.0 mi SW 4.6 mph - N/A   Mostly Cloudy
1:00 AM 39.2 °F - 39.2 °F 100% 29.95 in 20.0 mi South 2.3 mph - N/A   Overcast
2:00 AM 39.2 °F 33.6 °F 39.2 °F 100% 29.94 in 20.0 mi South 8.1 mph - N/A   Overcast
3:00 AM 41.0 °F 36.4 °F 37.4 °F 87% 29.93 in 20.0 mi South 6.9 mph - N/A   Overcast
4:00 AM 41 °F - 39 °F 89% 29.91 in 19 mi SSE 12.7 mph - -   Overcast
4:00 AM 41.0 °F 33.9 °F 39.2 °F 93% 29.91 in 20.0 mi SSE 12.7 mph 19.6 mph N/A   Overcast
5:00 AM 41.0 °F 32.8 °F 39.2 °F 93% 29.88 in 20.0 mi SE 16.1 mph 21.9 mph N/A   Overcast
6:00 AM 41.0 °F 32.2 °F 37.4 °F 87% 29.88 in 20.0 mi SE 18.4 mph - N/A   Partly Cloudy
7:00 AM 41.0 °F 32.5 °F 35.6 °F 81% 29.87 in 20.0 mi SSE 17.3 mph - N/A   Mostly Cloudy
8:00 AM 42.8 °F 34.3 °F 35.6 °F 76% 29.87 in 15.0 mi South 19.6 mph - N/A   Mostly Cloudy
9:00 AM 42.8 °F 36.2 °F 35.6 °F 76% 29.88 in 15.0 mi South 12.7 mph - N/A   Mostly Cloudy
10:00 AM 44 °F - 36 °F 65% 29.90 in 19 mi SW 4.6 mph - -   Scattered Clouds
10:00 AM 44.6 °F 42.2 °F 35.6 °F 71% 29.90 in 20.0 mi SW 4.6 mph - N/A   Mostly Cloudy
11:00 AM 46.4 °F 44.3 °F 35.6 °F 66% 29.91 in 20.0 mi South 4.6 mph - N/A   Scattered Clouds
12:00 PM 48.2 °F - 35.6 °F 62% 29.92 in 20.0 mi SE 5.8 mph - N/A   Mostly Cloudy
1:00 PM 48.2 °F - 39.2 °F 71% 29.91 in 20.0 mi ESE 10.4 mph - N/A   Mostly Cloudy
2:00 PM 46.4 °F 41.1 °F 39.2 °F 76% 29.92 in 20.0 mi ESE 11.5 mph - N/A   Mostly Cloudy
3:00 PM 46.4 °F 41.1 °F 41.0 °F 81% 29.92 in 20.0 mi ESE 11.5 mph - N/A   Mostly Cloudy
4:00 PM 46 °F - 41 °F 78% 29.91 in 19 mi ESE 10.4 mph - -   Scattered Clouds
4:00 PM 46.4 °F 41.5 °F 41.0 °F 81% 29.91 in 20.0 mi ESE 10.4 mph - N/A   Mostly Cloudy
5:00 PM 46.4 °F - 41.0 °F 81% 29.94 in 20.0 mi Calm Calm - N/A   Mostly Cloudy
6:00 PM 42.8 °F 41.1 °F 41.0 °F 93% 29.91 in 20.0 mi South 3.5 mph - N/A   Scattered Clouds
7:00 PM 42.8 °F 41.1 °F 37.4 °F 81% 29.92 in 20.0 mi South 3.5 mph - N/A   Overcast
8:00 PM 44.6 °F - 35.6 °F 71% 29.94 in 20.0 mi Calm Calm - N/A   Overcast
9:00 PM 42.8 °F 41.1 °F 39.2 °F 87% 29.91 in 20.0 mi SSW 3.5 mph - N/A   Overcast
10:00 PM 44 °F - 37 °F 68% 29.91 in 19 mi South 5.8 mph - -   Overcast
10:00 PM 42.8 °F 39.3 °F 37.4 °F 81% 29.91 in 20.0 mi South 5.8 mph - N/A   Overcast
11:00 PM 44.6 °F 40.7 °F 37.4 °F 76% 29.91 in 20.0 mi SSE 6.9 mph - N/A   Overcast